DELTA 1 R/B

Last updated on Wed Jul 02 2025 00:02:14 GMT+0000 (Coordinated Universal Time)

1 20323U 89089B 25182.59439514 .00000206 00000+0 60103-4 0 9993 2 20323 97.1027 64.6353 0068769 194.5243 165.3980 14.50406776859339
UTC large
Height (km)
Speed (km/s)
/
Latitude / Longitude
Inclination (degrees)
Orbital Period (minutes)
Azimuth
Elevation
Range (km)
Doppler Factor

Next 0 passes for location: London (51.5072 / 0.1276)

Sorry there are no passes over London.